Terminal Aerodrome Forecast
Issued by NWS Mt. Holly, NJ

Home | Current Version | Previous Version | Text Only | Print | Product List | Glossary On
Versions: 1 2 3 4 5 6 7 8 9 10 11 12 13 14 15 16 17 18 19 20 21
000
FTUS41 KPHI 221500 AAA
TAFILG
TAF AMD
KILG 221505Z 2215/2312 08010KT P6SM BKN014
     FM221700 11008KT P6SM VCSH BKN030
     FM230300 09010KT P6SM OVC015
     FM230700 06007KT 5SM BR OVC007=

USA.gov is the U.S. government's official web portal to all federal, state and local government web resources and services.